Chignik, AK

1:08 PM AKST on December 06, 2016 (GMT -0900)
Chignik

Weather History for PAJC - November, 2012

Change the Weather History Date:

Tuesday, November 27, 2012

  Actual Average Record
Temperature  
Mean Temperature 39 °F -  
Max Temperature 41 °F 35 °F 50 °F (2004)
Min Temperature 37 °F 29 °F 17 °F (2008)
Degree Days  
Heating Degree Days 26    
Moisture  
Dew Point 33 °F    
Average Humidity 79    
Maximum Humidity 87    
Minimum Humidity 61    
Precipitation  
Precipitation 0.00 in - - ()
Sea Level Pressure  
Sea Level Pressure 29.84 in    
Wind  
Wind Speed 7 mph (East)    
Max Wind Speed 17 mph    
Max Gust Speed 24 mph    
Visibility 8 miles    
Events      
Averages and records for this station are not official NWS values.
T = Trace of Precipitation, MM = Missing Value Source: NWS Daily Summary

Daily Weather History Graph

Daily Weather History Graph

Search for Another Location

Airport or City:

Trip Planner

Search our weather history database for the weather conditions in past years. The results will help you decide how hot, cold, wet, or windy it might be!

Date:

Astronomy

Nov. 27, 2012 Rise Set
Actual Time 9:36 AM AKST 5:05 PM AKST
Civil Twilight 8:51 AM AKST 5:51 PM AKST
Nautical Twilight 8:03 AM AKST 6:39 PM AKST
Astronomical Twilight 7:18 AM AKST 7:24 PM AKST
Moon 4:47 PM AKST (11/27) 8:48 AM AKST (11/27)
Length of Visible Light 8h 59m
Length of Day
7h 29m
Full, 100% of the Moon is Illuminated
Nov 27
Full
Nov 28
Full
Dec 6
Last Quarter
Dec 12
New
Dec 19
First Quarter

Hourly Weather History & Observations

Time (AKST) Temp. Windchill Dew Point Humidity Pressure Visibility Wind Dir Wind Speed Gust Speed Precip Events Conditions
12:16 AM 37.4 °F 31.4 °F 32.0 °F 81% 29.87 in 5.0 mi ESE 8.1 mph - N/A   Overcast
12:36 AM 37.4 °F 32.1 °F 32.0 °F 81% 29.86 in 5.0 mi SE 6.9 mph - N/A   Overcast
12:56 AM 37.4 °F 32.8 °F 32.0 °F 81% 29.84 in 3.0 mi East 5.8 mph - N/A   Overcast
1:16 AM 37.4 °F 32.8 °F 33.8 °F 87% 29.83 in 4.0 mi East 5.8 mph - N/A   Overcast
1:36 AM 37.4 °F 32.8 °F 33.8 °F 87% 29.82 in 4.0 mi East 5.8 mph - N/A   Overcast
1:56 AM 37.4 °F 33.8 °F 33.8 °F 87% 29.81 in 5.0 mi East 4.6 mph - N/A   Overcast
2:16 AM 37.4 °F 32.8 °F 33.8 °F 87% 29.80 in 4.0 mi East 5.8 mph - N/A   Overcast
2:36 AM 37.4 °F 31.4 °F 33.8 °F 87% 29.79 in 4.0 mi ESE 8.1 mph - N/A   Overcast
2:56 AM 37.4 °F 33.8 °F 33.8 °F 87% 29.78 in 4.0 mi East 4.6 mph - N/A   Overcast
3:16 AM 39.2 °F 32.0 °F 35.6 °F 87% 29.78 in 5.0 mi ESE 11.5 mph - N/A   Overcast
3:36 AM 39.2 °F 32.5 °F 33.8 °F 81% 29.77 in 7.0 mi East 10.4 mph - N/A   Overcast
3:56 AM 39.2 °F 32.5 °F 33.8 °F 81% 29.77 in 5.0 mi ESE 10.4 mph - N/A   Overcast
4:16 AM 39.2 °F 32.5 °F 33.8 °F 81% 29.77 in 10.0 mi ESE 10.4 mph 19.6 mph N/A   Overcast
4:36 AM 39.2 °F 32.0 °F 33.8 °F 81% 29.77 in 10.0 mi ESE 11.5 mph 17.3 mph N/A   Overcast
4:56 AM 39.2 °F 33.0 °F 33.8 °F 81% 29.76 in 10.0 mi SE 9.2 mph - N/A   Overcast
5:16 AM 39.2 °F 34.2 °F 33.8 °F 81% 29.76 in 5.0 mi SE 6.9 mph - N/A   Overcast
5:36 AM 39.2 °F 35.9 °F 33.8 °F 81% 29.75 in 5.0 mi ESE 4.6 mph - N/A   Overcast
5:56 AM 39.2 °F 34.2 °F 33.8 °F 81% 29.74 in 4.0 mi ESE 6.9 mph - N/A   Overcast
6:16 AM 39.2 °F 34.2 °F 33.8 °F 81% 29.75 in 3.0 mi East 6.9 mph - N/A   Overcast
6:36 AM 39.2 °F 35.0 °F 33.8 °F 81% 29.75 in 6.0 mi ESE 5.8 mph - N/A   Mostly Cloudy
6:56 AM 39.2 °F 34.2 °F 35.6 °F 87% 29.75 in 7.0 mi ESE 6.9 mph - N/A   Overcast
7:36 AM 39.2 °F 32.5 °F 35.6 °F 87% 29.76 in 5.0 mi ESE 10.4 mph - N/A   Overcast
7:56 AM 39.2 °F 33.6 °F 35.6 °F 87% 29.77 in 5.0 mi East 8.1 mph - N/A   Overcast
8:16 AM 39.2 °F 32.5 °F 33.8 °F 81% 29.78 in 10.0 mi ESE 10.4 mph - N/A   Overcast
8:36 AM 39.2 °F 33.0 °F 33.8 °F 81% 29.79 in 10.0 mi ESE 9.2 mph 16.1 mph N/A   Overcast
8:56 AM 39.2 °F 34.2 °F 33.8 °F 81% 29.79 in 10.0 mi ESE 6.9 mph - N/A   Overcast
9:16 AM 39.2 °F 33.6 °F 33.8 °F 81% 29.80 in 10.0 mi East 8.1 mph - N/A   Overcast
9:36 AM 39.2 °F 35.9 °F 35.6 °F 87% 29.80 in 4.0 mi ENE 4.6 mph - N/A   Overcast
9:56 AM 39.2 °F 35.0 °F 35.6 °F 87% 29.81 in 10.0 mi ENE 5.8 mph - N/A   Overcast
10:16 AM 39.2 °F 32.0 °F 35.6 °F 87% 29.81 in 10.0 mi ENE 11.5 mph - N/A   Overcast
10:36 AM 39.2 °F 33.6 °F 35.6 °F 87% 29.82 in 10.0 mi ENE 8.1 mph - N/A   Overcast
10:56 AM 39.2 °F 32.0 °F 35.6 °F 87% 29.83 in 10.0 mi NE 11.5 mph 17.3 mph N/A   Overcast
11:16 AM 39.2 °F 31.2 °F 35.6 °F 87% 29.83 in 5.0 mi NE 13.8 mph 21.9 mph N/A   Overcast
11:36 AM 39.2 °F 31.6 °F 35.6 °F 87% 29.84 in 5.0 mi NE 12.7 mph 21.9 mph N/A   Overcast
11:56 AM 39.2 °F 31.6 °F 35.6 °F 87% 29.84 in 10.0 mi NE 12.7 mph - N/A   Overcast
12:16 PM 39.2 °F 31.6 °F 35.6 °F 87% 29.85 in 10.0 mi NE 12.7 mph - N/A   Overcast
12:36 PM 39.2 °F 32.0 °F 33.8 °F 81% 29.85 in 10.0 mi ENE 11.5 mph - N/A   Overcast
12:56 PM 39.2 °F 32.0 °F 35.6 °F 87% 29.85 in 10.0 mi ENE 11.5 mph - N/A   Overcast
1:16 PM 39.2 °F 32.5 °F 33.8 °F 81% 29.86 in 10.0 mi ENE 10.4 mph 18.4 mph N/A   Overcast
1:36 PM 41.0 °F 33.5 °F 35.6 °F 81% 29.86 in 10.0 mi ENE 13.8 mph 20.7 mph N/A   Overcast
1:56 PM 41.0 °F 35.8 °F 33.8 °F 76% 29.86 in 10.0 mi ENE 8.1 mph - N/A   Overcast
2:16 PM 41.0 °F 38.0 °F 35.6 °F 81% 29.86 in 10.0 mi ENE 4.6 mph - N/A   Overcast
2:36 PM 41.0 °F 39.0 °F 35.6 °F 81% 29.86 in 8.0 mi East 3.5 mph - N/A   Overcast
2:56 PM 41.0 °F - 35.6 °F 81% 29.86 in 10.0 mi Calm Calm - N/A   Overcast
3:16 PM 41.0 °F 37.1 °F 35.6 °F 81% 29.86 in 10.0 mi SE 5.8 mph - N/A   Overcast
3:36 PM 41.0 °F 38.0 °F 35.6 °F 81% 29.86 in 10.0 mi ESE 4.6 mph - N/A   Overcast
3:56 PM 41.0 °F - 35.6 °F 81% 29.87 in 10.0 mi Calm Calm - N/A   Overcast
4:16 PM 41.0 °F - 35.6 °F 81% 29.87 in 10.0 mi Calm Calm - N/A   Overcast
4:36 PM 41.0 °F - 35.6 °F 81% 29.88 in 10.0 mi Calm Calm - N/A   Overcast
4:56 PM 39.2 °F 37.0 °F 33.8 °F 81% 29.88 in 10.0 mi East 3.5 mph - N/A   Overcast
5:16 PM 39.2 °F 37.0 °F 35.6 °F 87% 29.88 in 10.0 mi SSW 3.5 mph - N/A   Mostly Cloudy
5:36 PM 39.2 °F 37.0 °F 33.8 °F 81% 29.88 in 10.0 mi East 3.5 mph - N/A   Mostly Cloudy
5:56 PM 39.2 °F - 33.8 °F 81% 29.88 in 10.0 mi Calm Calm - N/A   Overcast
6:16 PM 39.2 °F - 33.8 °F 81% 29.89 in 10.0 mi Calm Calm - N/A   Scattered Clouds
6:36 PM 41.0 °F - 32.0 °F 70% 29.89 in 10.0 mi Calm Calm - N/A   Clear
6:56 PM 39.2 °F - 32.0 °F 75% 29.89 in 10.0 mi Calm Calm - N/A   Clear
7:16 PM 41.0 °F - 32.0 °F 70% 29.89 in 10.0 mi Calm Calm - N/A   Clear
7:36 PM 39.2 °F - 30.2 °F 70% 29.90 in 10.0 mi Calm Calm - N/A   Clear
7:56 PM 39.2 °F 37.0 °F 30.2 °F 70% 29.91 in 10.0 mi SW 3.5 mph - N/A   Clear
8:16 PM 39.2 °F 37.0 °F 30.2 °F 70% 29.91 in 10.0 mi East 3.5 mph - N/A   Partly Cloudy
8:36 PM 39.2 °F - 30.2 °F 70% 29.92 in 10.0 mi Calm Calm - N/A   Clear
8:56 PM 39.2 °F - 30.2 °F 70% 29.92 in 10.0 mi Calm Calm - N/A   Clear
9:16 PM 41.0 °F 34.3 °F 30.2 °F 65% 29.92 in 10.0 mi WSW 11.5 mph 17.3 mph N/A   Clear
9:36 PM 41.0 °F 34.3 °F 28.4 °F 61% 29.91 in 10.0 mi WSW 11.5 mph - N/A   Clear
9:56 PM 39.2 °F 32.0 °F 28.4 °F 65% 29.92 in 10.0 mi West 11.5 mph - N/A   Clear
10:16 PM 39.2 °F 30.8 °F 28.4 °F 65% 29.92 in 10.0 mi WSW 15.0 mph - N/A   Clear
10:36 PM 39.2 °F 31.2 °F 26.6 °F 61% 29.92 in 10.0 mi WSW 13.8 mph 20.7 mph N/A   Clear
10:56 PM 37.4 °F 29.3 °F 26.6 °F 65% 29.92 in 10.0 mi West 12.7 mph - N/A   Clear
11:16 PM 39.2 °F 30.2 °F 26.6 °F 61% 29.91 in 10.0 mi West 17.3 mph 24.2 mph N/A   Clear
11:36 PM 37.4 °F 28.2 °F 26.6 °F 65% 29.91 in 10.0 mi West 16.1 mph 20.7 mph N/A   Clear
11:56 PM 37.4 °F 28.5 °F 26.6 °F 65% 29.91 in 10.0 mi West 15.0 mph 20.7 mph N/A   Clear